Time,TemperatureF,DewpointF,PressureIn,WindDirection,WindDirectionDegrees,WindSpeedMPH,WindSpeedGustMPH,Humidity,HourlyPrecipIn,Conditions,Clouds,dailyrainin,SoftwareType,DateUTC
2013-04-10 00:03:00,73.0,68.0,30.11,ENE,74,3.0,8.0,83,0.00,,,0.00,,2013-04-10 04:03:00,
2013-04-10 00:13:00,73.0,68.0,30.11,ENE,74,3.0,8.0,83,0.00,,,0.00,,2013-04-10 04:13:00,
2013-04-10 00:23:00,73.0,68.0,30.12,ENE,73,1.0,7.0,83,0.00,,,0.00,,2013-04-10 04:23:00,
2013-04-10 00:33:00,73.0,68.0,30.11,East,98,2.0,7.0,83,0.00,,,0.00,,2013-04-10 04:33:00,
2013-04-10 00:43:00,73.0,68.0,30.11,East,98,2.0,7.0,83,0.00,,,0.00,,2013-04-10 04:43:00,
2013-04-10 00:53:00,73.0,68.0,30.11,ESE,115,1.0,5.0,84,0.00,,,0.00,,2013-04-10 04:53:00,
2013-04-10 01:03:00,73.0,68.0,30.11,ENE,74,3.0,8.0,84,0.00,,,0.00,,2013-04-10 05:03:00,
2013-04-10 01:13:00,73.0,68.0,30.11,ENE,74,3.0,8.0,84,0.00,,,0.00,,2013-04-10 05:13:00,
2013-04-10 01:23:00,74.0,69.0,30.11,East,85,1.0,4.0,85,0.00,,,0.00,,2013-04-10 05:23:00,
2013-04-10 01:33:00,74.0,69.0,30.10,East,86,3.0,7.0,85,0.00,,,0.00,,2013-04-10 05:33:00,
2013-04-10 01:42:00,74.0,69.0,30.10,East,86,3.0,7.0,85,0.00,,,0.00,,2013-04-10 05:42:00,
2013-04-10 01:53:00,74.0,69.0,30.10,East,92,2.0,8.0,84,0.00,,,0.00,,2013-04-10 05:53:00,
2013-04-10 02:03:00,74.0,69.0,30.09,ESE,117,3.0,7.0,84,0.00,,,0.00,,2013-04-10 06:03:00,
2013-04-10 02:12:00,74.0,69.0,30.09,East,86,1.0,7.0,84,0.00,,,0.00,,2013-04-10 06:12:00,
2013-04-10 02:22:00,74.0,69.0,30.09,East,86,1.0,7.0,84,0.00,,,0.00,,2013-04-10 06:22:00,
2013-04-10 02:32:00,74.0,70.0,30.09,ESE,110,2.0,9.0,86,0.00,,,0.00,,2013-04-10 06:32:00,
2013-04-10 02:42:00,74.0,70.0,30.09,ESE,110,2.0,9.0,86,0.00,,,0.00,,2013-04-10 06:42:00,
2013-04-10 02:52:00,73.0,68.0,30.08,East,85,2.0,8.0,85,0.00,,,0.00,,2013-04-10 06:52:00,
2013-04-10 03:02:00,73.0,69.0,30.08,ESE,107,1.0,5.0,86,0.00,,,0.00,,2013-04-10 07:02:00,
2013-04-10 03:12:00,73.0,69.0,30.08,ESE,107,1.0,5.0,86,0.00,,,0.00,,2013-04-10 07:12:00,
2013-04-10 03:22:00,73.0,69.0,30.07,ESE,120,1.0,6.0,86,0.00,,,0.00,,2013-04-10 07:22:00,
2013-04-10 03:32:00,73.0,69.0,30.07,ESE,103,0.0,5.0,86,0.00,,,0.00,,2013-04-10 07:32:00,
2013-04-10 03:42:00,73.0,69.0,30.07,ESE,103,0.0,5.0,86,0.00,,,0.00,,2013-04-10 07:42:00,
2013-04-10 03:52:00,72.0,68.0,30.07,East,97,0.0,3.0,88,0.00,,,0.00,,2013-04-10 07:52:00,
2013-04-10 04:02:00,72.0,69.0,30.07,East,96,1.0,3.0,89,0.00,,,0.00,,2013-04-10 08:02:00,
2013-04-10 04:12:00,72.0,69.0,30.07,East,96,1.0,3.0,89,0.00,,,0.00,,2013-04-10 08:12:00,
2013-04-10 04:22:00,72.0,69.0,30.06,East,92,0.0,2.0,90,0.00,,,0.00,,2013-04-10 08:22:00,
2013-04-10 04:32:00,71.0,68.0,30.06,East,94,0.0,3.0,90,0.00,,,0.00,,2013-04-10 08:32:00,
2013-04-10 04:42:00,71.0,68.0,30.06,East,94,0.0,3.0,90,0.00,,,0.00,,2013-04-10 08:42:00,
2013-04-10 04:52:00,71.0,68.0,30.06,East,99,1.0,3.0,91,0.00,,,0.00,,2013-04-10 08:52:00,
2013-04-10 05:02:00,72.0,69.0,30.06,East,98,0.0,5.0,90,0.00,,,0.00,,2013-04-10 09:02:00,
2013-04-10 05:12:00,72.0,69.0,30.06,ESE,111,1.0,4.0,90,0.00,,,0.00,,2013-04-10 09:12:00,
2013-04-10 05:22:00,72.0,69.0,30.06,ESE,111,1.0,4.0,90,0.00,,,0.00,,2013-04-10 09:22:00,
2013-04-10 05:32:00,72.0,69.0,30.07,ESE,113,0.0,3.0,90,0.00,,,0.00,,2013-04-10 09:32:00,
2013-04-10 05:43:00,72.0,69.0,30.07,ESE,113,0.0,3.0,90,0.00,,,0.00,,2013-04-10 09:43:00,
2013-04-10 05:53:00,71.0,68.0,30.06,ESE,113,0.0,1.0,90,0.00,,,0.00,,2013-04-10 09:53:00,
2013-04-10 06:03:00,71.0,68.0,30.06,ESE,113,1.0,3.0,91,0.00,,,0.00,,2013-04-10 10:03:00,
2013-04-10 06:13:00,71.0,69.0,30.06,ESE,113,0.0,2.0,92,0.00,,,0.00,,2013-04-10 10:13:00,
2013-04-10 06:23:00,71.0,69.0,30.06,ESE,113,0.0,2.0,92,0.00,,,0.00,,2013-04-10 10:23:00,
2013-04-10 06:33:00,71.0,69.0,30.06,East,93,0.0,6.0,92,0.00,,,0.00,,2013-04-10 10:33:00,
2013-04-10 06:43:00,71.0,69.0,30.06,East,93,0.0,6.0,92,0.00,,,0.00,,2013-04-10 10:43:00,
2013-04-10 06:53:00,71.0,68.0,30.06,ESE,121,1.0,5.0,90,0.00,,,0.00,,2013-04-10 10:53:00,
2013-04-10 07:02:00,71.0,68.0,30.07,East,87,2.0,6.0,90,0.00,,,0.00,,2013-04-10 11:02:00,
2013-04-10 07:12:00,71.0,68.0,30.07,East,87,2.0,6.0,90,0.00,,,0.00,,2013-04-10 11:12:00,
2013-04-10 07:22:00,71.0,68.0,30.07,East,94,1.0,3.0,90,0.00,,,0.00,,2013-04-10 11:22:00,
2013-04-10 07:32:00,71.0,69.0,30.08,ESE,103,1.0,5.0,92,0.00,,,0.00,,2013-04-10 11:32:00,
2013-04-10 07:42:00,71.0,69.0,30.08,ESE,103,1.0,5.0,92,0.00,,,0.00,,2013-04-10 11:42:00,
2013-04-10 07:53:00,72.0,69.0,30.08,ENE,76,1.0,5.0,91,0.00,,,0.00,,2013-04-10 11:53:00,
2013-04-10 08:03:00,72.0,69.0,30.08,East,94,1.0,5.0,91,0.00,,,0.00,,2013-04-10 12:03:00,
2013-04-10 08:12:00,72.0,69.0,30.08,East,94,1.0,5.0,91,0.00,,,0.00,,2013-04-10 12:12:00,
2013-04-10 08:23:00,74.0,70.0,30.08,ESE,114,3.0,8.0,88,0.00,,,0.00,,2013-04-10 12:23:00,
2013-04-10 08:33:00,74.0,70.0,30.09,ESE,110,1.0,8.0,86,0.00,,,0.00,,2013-04-10 12:33:00,
2013-04-10 08:42:00,74.0,70.0,30.09,ESE,110,1.0,8.0,86,0.00,,,0.00,,2013-04-10 12:42:00,
2013-04-10 08:52:00,75.0,70.0,30.08,ESE,110,3.0,10.0,84,0.00,,,0.00,,2013-04-10 12:52:00,
2013-04-10 09:02:00,76.0,70.0,30.08,SE,132,6.0,11.0,82,0.00,,,0.00,,2013-04-10 13:02:00,
2013-04-10 09:12:00,76.0,70.0,30.08,SE,132,6.0,11.0,82,0.00,,,0.00,,2013-04-10 13:12:00,
2013-04-10 09:23:00,77.0,71.0,30.08,ESE,117,3.0,10.0,81,0.00,,,0.00,,2013-04-10 13:23:00,
2013-04-10 09:32:00,78.0,71.0,30.08,SE,124,5.0,12.0,79,0.00,,,0.00,,2013-04-10 13:32:00,
2013-04-10 09:43:00,78.0,71.0,30.08,SE,124,5.0,12.0,79,0.00,,,0.00,,2013-04-10 13:43:00,
2013-04-10 09:53:00,77.0,71.0,30.09,ESE,108,4.0,10.0,82,0.00,,,0.00,,2013-04-10 13:53:00,
2013-04-10 10:02:00,77.0,71.0,30.09,SE,126,5.0,11.0,82,0.00,,,0.00,,2013-04-10 14:02:00,
2013-04-10 10:12:00,77.0,71.0,30.09,SE,126,5.0,11.0,82,0.00,,,0.00,,2013-04-10 14:12:00,
2013-04-10 10:22:00,78.0,72.0,30.09,ESE,113,4.0,12.0,83,0.00,,,0.00,,2013-04-10 14:22:00,
2013-04-10 10:33:00,78.0,72.0,30.09,ENE,67,3.0,11.0,82,0.00,,,0.00,,2013-04-10 14:33:00,
2013-04-10 10:42:00,78.0,72.0,30.09,ENE,67,3.0,11.0,82,0.00,,,0.00,,2013-04-10 14:42:00,
2013-04-10 10:52:00,78.0,72.0,30.10,East,92,4.0,10.0,83,0.00,,,0.00,,2013-04-10 14:52:00,
2013-04-10 11:03:00,78.0,72.0,30.09,East,98,3.0,13.0,83,0.00,,,0.00,,2013-04-10 15:03:00,
2013-04-10 11:12:00,78.0,72.0,30.09,East,98,3.0,13.0,83,0.00,,,0.00,,2013-04-10 15:12:00,
2013-04-10 11:23:00,79.0,73.0,30.09,ESE,103,6.0,11.0,83,0.00,,,0.00,,2013-04-10 15:23:00,
2013-04-10 11:33:00,79.0,73.0,30.10,ESE,118,8.0,14.0,81,0.00,,,0.00,,2013-04-10 15:33:00,
2013-04-10 11:42:00,79.0,73.0,30.10,ESE,118,8.0,14.0,81,0.00,,,0.00,,2013-04-10 15:42:00,
2013-04-10 11:53:00,78.0,73.0,30.10,East,96,5.0,13.0,84,0.00,,,0.00,,2013-04-10 15:53:00,
2013-04-10 12:03:00,79.0,74.0,30.09,ESE,122,5.0,13.0,84,0.00,,,0.00,,2013-04-10 16:03:00,
2013-04-10 12:13:00,79.0,74.0,30.09,ESE,122,5.0,13.0,84,0.00,,,0.00,,2013-04-10 16:13:00,
2013-04-10 12:23:00,80.0,74.0,30.09,ESE,115,6.0,11.0,81,0.00,,,0.00,,2013-04-10 16:23:00,
2013-04-10 12:33:00,80.0,73.0,30.09,ESE,103,6.0,13.0,79,0.00,,,0.00,,2013-04-10 16:33:00,
2013-04-10 12:43:00,80.0,73.0,30.09,ESE,103,6.0,13.0,79,0.00,,,0.00,,2013-04-10 16:43:00,
2013-04-10 12:53:00,81.0,74.0,30.08,East,98,5.0,12.0,79,0.00,,,0.00,,2013-04-10 16:53:00,
2013-04-10 13:03:00,80.0,73.0,30.08,ESE,104,7.0,14.0,79,0.00,,,0.00,,2013-04-10 17:03:00,
2013-04-10 13:13:00,80.0,73.0,30.07,ESE,119,5.0,13.0,80,0.00,,,0.00,,2013-04-10 17:13:00,
2013-04-10 13:22:00,80.0,73.0,30.07,ESE,119,5.0,13.0,80,0.00,,,0.00,,2013-04-10 17:22:00,
2013-04-10 13:33:00,81.0,73.0,30.07,East,90,6.0,11.0,77,0.00,,,0.00,,2013-04-10 17:33:00,
2013-04-10 13:43:00,81.0,73.0,30.07,East,90,6.0,11.0,77,0.00,,,0.00,,2013-04-10 17:43:00,
2013-04-10 13:53:00,81.0,73.0,30.06,ESE,103,5.0,12.0,76,0.00,,,0.00,,2013-04-10 17:53:00,
2013-04-10 14:03:00,81.0,73.0,30.06,ESE,103,4.0,15.0,78,0.00,,,0.00,,2013-04-10 18:03:00,
2013-04-10 14:12:00,81.0,73.0,30.06,ESE,103,4.0,15.0,78,0.00,,,0.00,,2013-04-10 18:12:00,
2013-04-10 14:23:00,82.0,74.0,30.06,SE,146,4.0,12.0,77,0.00,,,0.00,,2013-04-10 18:23:00,
2013-04-10 14:33:00,83.0,74.0,30.06,SE,125,5.0,13.0,74,0.00,,,0.00,,2013-04-10 18:33:00,
2013-04-10 14:42:00,83.0,74.0,30.06,SE,125,5.0,13.0,74,0.00,,,0.00,,2013-04-10 18:42:00,
2013-04-10 14:53:00,83.0,73.0,30.06,SSE,165,5.0,13.0,73,0.00,,,0.00,,2013-04-10 18:53:00,
2013-04-10 15:03:00,81.0,72.0,30.05,East,87,7.0,14.0,75,0.00,,,0.00,,2013-04-10 19:03:00,
2013-04-10 15:13:00,81.0,72.0,30.05,East,87,7.0,14.0,75,0.00,,,0.00,,2013-04-10 19:13:00,
2013-04-10 15:22:00,82.0,73.0,30.04,ESE,105,3.0,12.0,75,0.00,,,0.00,,2013-04-10 19:22:00,
2013-04-10 15:33:00,83.0,73.0,30.04,ESE,115,5.0,11.0,72,0.00,,,0.00,,2013-04-10 19:33:00,
2013-04-10 15:42:00,83.0,73.0,30.04,ESE,115,5.0,11.0,72,0.00,,,0.00,,2013-04-10 19:42:00,
2013-04-10 15:53:00,82.0,72.0,30.04,ESE,119,5.0,12.0,73,0.00,,,0.00,,2013-04-10 19:53:00,
2013-04-10 16:03:00,82.0,73.0,30.04,ESE,108,7.0,14.0,74,0.00,,,0.00,,2013-04-10 20:03:00,
2013-04-10 16:12:00,82.0,73.0,30.03,ESE,110,4.0,13.0,75,0.00,,,0.00,,2013-04-10 20:12:00,
2013-04-10 16:23:00,82.0,73.0,30.03,ESE,110,4.0,13.0,75,0.00,,,0.00,,2013-04-10 20:23:00,
2013-04-10 16:33:00,81.0,73.0,30.03,SSE,149,5.0,14.0,76,0.00,,,0.00,,2013-04-10 20:33:00,
2013-04-10 16:42:00,82.0,73.0,30.03,East,101,6.0,12.0,74,0.00,,,0.00,,2013-04-10 20:42:00,
2013-04-10 16:52:00,82.0,73.0,30.03,East,101,6.0,12.0,74,0.00,,,0.00,,2013-04-10 20:52:00,
2013-04-10 17:03:00,81.0,72.0,30.02,SE,134,7.0,11.0,75,0.00,,,0.00,,2013-04-10 21:03:00,
2013-04-10 17:13:00,81.0,72.0,30.02,SE,134,7.0,11.0,75,0.00,,,0.00,,2013-04-10 21:13:00,
2013-04-10 17:22:00,81.0,73.0,30.02,ESE,107,6.0,14.0,78,0.00,,,0.00,,2013-04-10 21:22:00,
2013-04-10 17:33:00,81.0,73.0,30.01,SE,146,5.0,14.0,76,0.00,,,0.00,,2013-04-10 21:33:00,
2013-04-10 17:43:00,81.0,73.0,30.01,SE,146,5.0,14.0,76,0.00,,,0.00,,2013-04-10 21:43:00,
2013-04-10 17:53:00,81.0,72.0,30.02,ESE,109,5.0,11.0,75,0.00,,,0.00,,2013-04-10 21:53:00,
2013-04-10 18:03:00,80.0,72.0,30.01,ESE,111,6.0,13.0,76,0.00,,,0.00,,2013-04-10 22:03:00,
2013-04-10 18:13:00,80.0,72.0,30.01,ESE,111,6.0,13.0,76,0.00,,,0.00,,2013-04-10 22:13:00,
2013-04-10 18:23:00,80.0,72.0,30.01,East,99,6.0,15.0,78,0.00,,,0.00,,2013-04-10 22:23:00,
2013-04-10 18:33:00,79.0,72.0,30.01,East,92,5.0,9.0,79,0.00,,,0.00,,2013-04-10 22:33:00,
2013-04-10 18:42:00,79.0,72.0,30.01,East,92,5.0,9.0,79,0.00,,,0.00,,2013-04-10 22:42:00,
2013-04-10 18:53:00,79.0,72.0,30.01,SSE,147,4.0,13.0,80,0.00,,,0.00,,2013-04-10 22:53:00,
2013-04-10 19:03:00,79.0,72.0,30.01,SSE,147,4.0,13.0,80,0.00,,,0.00,,2013-04-10 23:03:00,
2013-04-10 19:12:00,79.0,72.0,30.01,SSE,147,4.0,13.0,80,0.00,,,0.00,,2013-04-10 23:12:00,
2013-04-10 19:22:00,79.0,73.0,30.02,SE,126,6.0,13.0,81,0.00,,,0.00,,2013-04-10 23:22:00,
2013-04-10 19:33:00,78.0,72.0,30.02,East,99,3.0,10.0,83,0.00,,,0.00,,2013-04-10 23:33:00,
2013-04-10 19:43:00,78.0,72.0,30.02,East,99,3.0,10.0,83,0.00,,,0.00,,2013-04-10 23:43:00,
2013-04-10 19:52:00,78.0,73.0,30.02,East,98,3.0,9.0,84,0.00,,,0.00,,2013-04-10 23:52:00,
2013-04-10 20:02:00,77.0,72.0,30.01,East,96,4.0,8.0,85,0.00,,,0.00,,2013-04-11 00:02:00,
2013-04-10 20:13:00,77.0,72.0,30.01,East,96,4.0,8.0,85,0.00,,,0.00,,2013-04-11 00:13:00,
2013-04-10 20:23:00,77.0,72.0,30.02,ESE,116,4.0,12.0,86,0.00,,,0.00,,2013-04-11 00:23:00,
2013-04-10 20:32:00,77.0,73.0,30.01,ESE,111,4.0,10.0,87,0.00,,,0.00,,2013-04-11 00:32:00,
2013-04-10 20:42:00,77.0,73.0,30.01,ESE,111,4.0,10.0,87,0.00,,,0.00,,2013-04-11 00:42:00,
2013-04-10 20:52:00,76.0,72.0,30.01,SE,135,2.0,13.0,88,0.00,,,0.00,,2013-04-11 00:52:00,
2013-04-10 21:02:00,76.0,72.0,30.01,SE,135,2.0,13.0,88,0.00,,,0.00,,2013-04-11 01:02:00,
2013-04-10 21:12:00,76.0,72.0,30.01,SE,135,2.0,13.0,88,0.00,,,0.00,,2013-04-11 01:12:00,
2013-04-10 21:22:00,76.0,72.0,30.02,East,100,4.0,9.0,88,0.00,,,0.00,,2013-04-11 01:22:00,
2013-04-10 21:32:00,76.0,72.0,30.02,East,90,3.0,10.0,88,0.00,,,0.00,,2013-04-11 01:32:00,
2013-04-10 21:42:00,76.0,72.0,30.02,East,90,3.0,10.0,88,0.00,,,0.00,,2013-04-11 01:42:00,
2013-04-10 21:52:00,76.0,72.0,30.02,East,92,5.0,13.0,88,0.00,,,0.00,,2013-04-11 01:52:00,
2013-04-10 22:03:00,76.0,72.0,30.03,East,97,4.0,10.0,88,0.00,,,0.00,,2013-04-11 02:03:00,
2013-04-10 22:12:00,76.0,73.0,30.03,SE,140,3.0,11.0,89,0.00,,,0.00,,2013-04-11 02:12:00,
2013-04-10 22:22:00,76.0,73.0,30.03,SE,140,3.0,11.0,89,0.00,,,0.00,,2013-04-11 02:22:00,
2013-04-10 22:32:00,76.0,72.0,30.03,SSW,192,3.0,12.0,88,0.00,,,0.00,,2013-04-11 02:32:00,
2013-04-10 22:42:00,76.0,72.0,30.03,SSW,192,3.0,12.0,88,0.00,,,0.00,,2013-04-11 02:42:00,
2013-04-10 22:52:00,76.0,72.0,30.04,SE,136,3.0,8.0,88,0.00,,,0.00,,2013-04-11 02:52:00,
2013-04-10 23:02:00,76.0,72.0,30.03,SE,130,7.0,13.0,88,0.00,,,0.00,,2013-04-11 03:02:00,
2013-04-10 23:12:00,76.0,72.0,30.03,SE,130,7.0,13.0,88,0.00,,,0.00,,2013-04-11 03:12:00,
2013-04-10 23:22:00,76.0,72.0,30.03,SSE,150,6.0,15.0,87,0.00,,,0.00,,2013-04-11 03:22:00,
2013-04-10 23:33:00,76.0,72.0,30.03,East,98,4.0,11.0,88,0.00,,,0.00,,2013-04-11 03:33:00,
2013-04-10 23:43:00,76.0,72.0,30.03,SSE,150,3.0,12.0,88,0.00,,,0.00,,2013-04-11 03:43:00,
2013-04-10 23:53:00,76.0,72.0,30.03,SSE,150,3.0,12.0,88,0.00,,,0.00,,2013-04-11 03:53:00,